TimeCST,TemperatureF,Dew PointF,Humidity,Sea Level PressureIn,VisibilityMPH,Wind Direction,Wind SpeedMPH,Gust SpeedMPH,PrecipitationIn,Events,Conditions,WindDirDegrees,DateUTC
12:53 AM,28.0,23.0,81,30.06,10.0,Calm,Calm,-,N/A,,Overcast,0,2012-11-06 06:53:00
2:53 AM,30.9,25.0,79,30.01,10.0,South,5.8,-,N/A,,Overcast,180,2012-11-06 08:53:00
3:53 AM,30.9,26.1,82,29.99,10.0,South,6.9,-,N/A,,Overcast,180,2012-11-06 09:53:00
4:53 AM,32.0,26.1,79,29.97,10.0,South,5.8,-,N/A,,Overcast,180,2012-11-06 10:53:00
5:53 AM,30.9,26.1,82,29.94,10.0,South,5.8,-,N/A,,Overcast,170,2012-11-06 11:53:00
6:53 AM,32.0,27.0,82,29.93,2.5,South,8.1,-,0.00,Snow,Light Snow,170,2012-11-06 12:53:00
6:55 AM,32.0,26.6,80,29.86,3.0,South,9.2,-,0.00,Snow,Light Snow,170,2012-11-06 12:55:00
7:25 AM,32.0,28.4,87,29.86,3.0,South,8.1,-,0.00,Snow,Light Snow,170,2012-11-06 13:25:00
7:35 AM,32.0,28.4,87,29.86,2.5,SSE,8.1,-,0.00,Snow,Light Snow,160,2012-11-06 13:35:00
7:42 AM,32.0,28.4,87,29.86,3.0,South,9.2,-,0.00,Snow,Light Snow,170,2012-11-06 13:42:00
7:49 AM,32.0,28.4,87,29.86,2.0,SSE,5.8,-,0.00,Snow,Light Snow,160,2012-11-06 13:49:00
7:53 AM,32.0,28.0,85,29.92,2.0,SSE,10.4,-,0.00,Snow,Light Snow,160,2012-11-06 13:53:00
8:07 AM,32.0,28.4,87,29.85,1.5,SSE,6.9,-,0.00,Snow,Light Snow,160,2012-11-06 14:07:00
8:35 AM,32.0,28.4,87,29.85,1.2,South,5.8,-,0.00,Snow,Light Snow,170,2012-11-06 14:35:00
8:53 AM,32.0,28.9,88,29.91,1.0,South,6.9,-,0.00,Snow,Light Snow,170,2012-11-06 14:53:00
9:53 AM,32.0,30.0,92,29.90,1.2,SSE,5.8,-,0.00,Snow,Light Snow,160,2012-11-06 15:53:00
10:41 AM,33.8,30.2,87,29.82,2.0,SSE,9.2,-,0.01,Snow,Light Snow,150,2012-11-06 16:41:00
10:51 AM,33.8,30.2,87,29.82,1.5,SSE,8.1,-,0.01,Snow,Light Snow,160,2012-11-06 16:51:00
10:53 AM,33.1,30.0,89,29.88,1.2,SSE,9.2,-,0.01,Snow,Light Snow,160,2012-11-06 16:53:00
11:53 AM,33.1,30.9,92,29.86,1.8,SSE,10.4,-,0.00,Snow,Light Snow,160,2012-11-06 17:53:00
12:01 PM,33.8,30.2,87,29.79,2.5,South,8.1,-,0.00,,Overcast,170,2012-11-06 18:01:00
12:10 PM,33.8,30.2,87,29.79,4.0,South,8.1,-,0.00,,Overcast,180,2012-11-06 18:10:00
12:53 PM,33.1,30.9,92,29.84,3.0,SSE,10.4,16.1,0.00,Snow,Light Snow,160,2012-11-06 18:53:00
1:53 PM,33.1,30.0,89,29.84,5.0,South,10.4,-,0.00,,Overcast,170,2012-11-06 19:53:00
2:53 PM,33.1,30.0,89,29.84,5.0,SSE,8.1,-,N/A,,Overcast,160,2012-11-06 20:53:00
3:31 PM,33.8,30.2,87,29.79,2.0,SSE,6.9,-,0.00,Snow,Light Snow,160,2012-11-06 21:31:00
3:40 PM,33.8,30.2,87,29.80,1.8,SSE,5.8,-,0.00,Snow,Light Snow,150,2012-11-06 21:40:00
3:53 PM,33.1,30.9,92,29.86,1.8,SSE,4.6,-,0.00,Snow,Light Snow,150,2012-11-06 21:53:00
4:09 PM,33.8,30.2,87,29.81,0.8,SE,3.5,-,0.00,Snow,Light Snow,130,2012-11-06 22:09:00
4:53 PM,32.0,30.9,96,29.88,1.0,SE,3.5,-,0.02,Snow,Light Snow,140,2012-11-06 22:53:00
5:53 PM,32.0,30.9,96,29.89,1.5,Calm,Calm,-,0.02,Snow,Light Snow,0,2012-11-06 23:53:00
6:20 PM,32.0,30.2,93,29.84,2.0,Calm,Calm,-,0.00,Snow,Light Snow,0,2012-11-07 00:20:00
6:33 PM,32.0,30.2,93,29.84,3.0,Calm,Calm,-,0.01,Snow,Light Snow,0,2012-11-07 00:33:00
6:53 PM,32.0,30.9,96,29.90,6.0,ESE,3.5,-,0.01,,Overcast,110,2012-11-07 00:53:00
7:53 PM,32.0,30.9,96,29.91,6.0,Calm,Calm,-,N/A,,Overcast,0,2012-11-07 01:53:00
8:53 PM,32.0,32.0,100,29.92,5.0,Calm,Calm,-,N/A,,Overcast,0,2012-11-07 02:53:00
9:53 PM,32.0,30.9,96,29.93,5.0,East,3.5,-,N/A,,Overcast,100,2012-11-07 03:53:00
10:53 PM,33.1,30.9,92,29.94,5.0,Calm,Calm,-,N/A,,Overcast,0,2012-11-07 04:53:00
11:53 PM,32.0,30.9,96,29.96,6.0,Calm,Calm,-,N/A,,Overcast,0,2012-11-07 05:53:00